CZ-6A DEB, 54270

Orbit data source: Space-Track

CZ-6A DEB, 54270 is space debris in SSO originally from a launch on Fri, 11 Nov 2022 UTC launched from the Taiyaun Space Center, China (TSC). Debris objects in space refer to the collection of defunct objects orbiting the Earth. Examples of debris include non-operational satellites, rocket bodies, and fragments generated from explosions, collisions, or faulty payload assembly.

Loading next visibility...
Identifier
54270, 2022-151M
Orbit
SSO
Country
Flag of CNCN / PRC
Related business
Manufacturer
SAST
Mission
Spacecraft
Bus & Motor
Unknown
Mass
Unknown
Launch date (UTC)
2022-11-11 (3 years ago)
Launch vehicle
Unknown
Launch site
Taiyaun Space Center, China (TSC)
Object type
Payload
Rocket body
Debris
Shape & HBR
Unknown shape, 0.8 m
Radar Cross Section
Medium (>0.1 m² and <1 m²)

Expand to show TLE details & history
Last TLE update: 16 hours ago

TLE from 16 hours ago
0 CZ-6A DEB
1 54270U 22151M   25354.95776271  .00000281  00000-0  20473-3 0  9992
2 54270  98.8814 341.8365 0084363 171.2011 189.0657 14.02259763158442
Epoch: 2025-12-20T22:59Z
TLE epoch observation values (Epoch: 2025-12-20T22:59:10.698Z)
Latitude
-0°
Longitude
-92.73518°
Altitude
949.407 km
Speed
7.346 km/s
True Right ascension
22h 47m 20s
True Declination
0° 00' 00"
Sunlit
Object was in daylight at epoch
Visualization orbit readout
Latitude
Unknown
Longitude
Unknown
Altitude
Unknown
Speed
Unknown
Apparent Right ascension
Unknown
Apparent Declination
Unknown
Sunlit
N/A
Visualization observer readout
Local Sidereal Time
13:56:59
Azimuth
Unknown
Elevation
Unknown
Doppler factor
Unknown
Orbital elements
Apogee altitude
944.429 km
Perigee altitude
821.912 km
Semi-major axis
7,261.308 km
Eccentricity
0.00844
Inclination
98.8814°
RAAN
341.8365°
Arg. of periapsis
171.2011°
True anomaly
188.91495°
Mean anomaly
189.0657°
Eccentric anomaly
188.99017°
Mean motion
3.50769 °/min
Orbital period
102.63 mins
BSTAR
0.00020473
Loading maneuver chart data...
Computing Atmospheric mass density...
Loading historical data...
Loading historical data...
Loading historical data...
Loading historical data...
Loading historical data...
Loading historical data...
Loading historical data...

Documentation

Showing up to 5 results
|